Date String (YYYY-MM-DD hh:mm:ss) UTC,Instrument flags,Ambient pressure (hPa),Sample flow (lpm),Bypass flow (lpm),Sample temperature (°C),Ambient temperature (°C),ASC tube jacket temperature (°C),LED temperature (°C),Box temperature (°C),Sample RH (%),Span deviation,Mass concentration (μg/m³),Mass concentration (μg/m³),Mass concentration (μg/m³)
DateTimeUTC,F1_M11,P_M11,Q1_M11,Q2_M11,T1_M11,T2_M11,T3_M11,T4_M11,T5_M11,U1_M11,ZSPAN_M11,X2_M11,X0_M11,X1_M11
2022-12-31 23:00:00,,0814.6,5.01,0.00,26.1,24.6,00.0,35.0,27.9,12.5,0000.0,0012.19,0018.55,0011.48
2022-12-31 23:01:00,,0814.6,4.99,0.00,26.1,24.6,00.0,34.9,27.9,12.5,0000.0,0012.06,0017.97,0011.39
2022-12-31 23:02:00,,0814.9,4.99,0.00,26.1,24.6,00.0,34.9,27.9,12.5,0000.0,0011.91,0017.37,0011.28
2022-12-31 23:03:00,,0815.1,5.00,0.00,26.1,24.6,00.0,34.9,27.9,12.5,0000.0,0011.61,0016.62,0011.07
2022-12-31 23:04:00,,0815.0,5.00,0.00,26.1,24.6,00.0,34.9,27.9,12.6,0000.0,0011.36,0015.78,0010.83
2022-12-31 23:05:00,,0814.6,5.01,0.00,26.1,24.6,00.0,34.9,27.9,12.6,0000.0,0011.11,0015.62,0010.57
2022-12-31 23:06:00,,0814.8,5.01,0.00,26.1,24.6,00.0,34.9,27.9,12.6,0000.0,0010.86,0015.11,0010.33
2022-12-31 23:07:00,,0814.9,5.00,0.00,26.0,24.6,00.0,34.9,27.9,12.5,0000.0,0010.54,0014.39,0010.05
2022-12-31 23:08:00,,0814.9,5.00,0.00,26.0,24.6,00.0,34.9,27.9,12.6,0000.0,0010.23,0013.32,0009.79
2022-12-31 23:09:00,,0814.9,5.00,0.00,26.0,24.6,00.0,34.9,27.9,12.6,0000.0,0009.96,0012.99,0009.57
2022-12-31 23:10:00,,0814.8,5.01,0.00,26.0,24.6,00.0,34.9,27.9,12.5,0000.0,0009.73,0012.61,0009.33
2022-12-31 23:11:00,,0814.5,4.99,0.00,26.0,24.6,00.0,34.9,27.9,12.5,0000.0,0009.40,0012.16,0009.00
2022-12-31 23:12:00,,0814.7,5.00,0.00,26.0,24.6,00.0,34.9,27.8,12.5,0000.0,0009.05,0011.95,0008.68
2022-12-31 23:13:00,,0814.5,4.99,0.00,26.0,24.5,00.0,34.9,27.8,12.5,0000.0,0008.73,0011.70,0008.41
2022-12-31 23:14:00,,0814.7,5.00,0.00,26.0,24.5,00.0,34.9,27.8,12.5,0000.0,0008.48,0010.99,0008.17
2022-12-31 23:15:00,,0814.5,5.02,0.00,26.0,24.5,00.0,34.9,27.8,12.6,0000.0,0008.24,0010.69,0007.95
2022-12-31 23:16:00,,0814.4,5.00,0.00,26.0,24.5,00.0,34.9,27.8,12.6,0000.0,0007.94,0010.46,0007.68
2022-12-31 23:17:00,,0814.4,5.00,0.00,26.0,24.5,00.0,34.9,27.8,12.6,0000.0,0007.66,0010.68,0007.43
2022-12-31 23:18:00,,0814.3,5.00,0.00,26.0,24.5,00.0,34.9,27.8,12.6,0000.0,0007.51,0010.55,0007.25
2022-12-31 23:19:00,,0814.3,5.00,0.00,26.0,24.5,00.0,34.9,27.8,12.6,0000.0,0007.35,0010.42,0007.09
2022-12-31 23:20:00,,0814.2,5.00,0.00,26.0,24.5,00.0,34.9,27.8,12.6,0000.0,0007.20,0010.28,0006.93
2022-12-31 23:21:00,,0814.2,4.99,0.00,26.0,24.5,00.0,34.8,27.8,12.6,0000.0,0007.02,0010.03,0006.77
2022-12-31 23:22:00,,0814.3,5.00,0.00,26.0,24.5,00.0,34.8,27.8,12.6,0000.0,0006.86,0009.83,0006.63
2022-12-31 23:23:00,,0814.3,5.00,0.00,26.0,24.5,00.0,34.8,27.8,12.7,0000.0,0006.73,0009.54,0006.52
2022-12-31 23:24:00,,0814.4,5.00,0.00,26.0,24.5,00.0,34.8,27.8,12.7,0000.0,0006.58,0009.16,0006.37
2022-12-31 23:25:00,,0814.4,5.00,0.00,26.0,24.5,00.0,34.8,27.8,12.6,0000.0,0006.45,0009.05,0006.24
2022-12-31 23:26:00,,0814.5,5.01,0.00,26.0,24.5,00.0,34.8,27.8,12.6,0000.0,0006.34,0008.95,0006.12
2022-12-31 23:27:00,,0814.6,4.99,0.00,26.0,24.5,00.0,34.8,27.8,12.5,0000.0,0006.19,0008.79,0005.97
2022-12-31 23:28:00,,0814.8,5.00,0.00,25.9,24.5,00.0,34.8,27.8,12.5,0000.0,0006.08,0007.92,0005.87
2022-12-31 23:29:00,,0814.5,5.00,0.00,25.9,24.5,00.0,34.8,27.8,12.6,0000.0,0005.95,0007.74,0005.79
2022-12-31 23:30:00,,0814.5,5.00,0.00,25.9,24.5,00.0,34.8,27.8,12.7,0000.0,0005.87,0007.67,0005.72
2022-12-31 23:31:00,,0815.0,5.00,0.00,25.9,24.5,00.0,34.8,27.8,12.7,0000.0,0005.84,0007.69,0005.67
2022-12-31 23:32:00,,0815.0,5.00,0.00,25.9,24.5,00.0,34.8,27.8,12.6,0000.0,0005.82,0007.67,0005.64
2022-12-31 23:33:00,,0815.0,4.99,0.00,25.9,24.5,00.0,34.8,27.8,12.6,0000.0,0005.84,0007.74,0005.63
2022-12-31 23:34:00,,0815.1,5.00,0.00,25.9,24.5,00.0,34.8,27.7,12.6,0000.0,0005.84,0007.90,0005.61
2022-12-31 23:35:00,,0814.9,5.01,0.00,25.9,24.5,00.0,34.8,27.8,12.7,0000.0,0005.87,0007.96,0005.62
2022-12-31 23:36:00,,0814.8,5.00,0.00,25.9,24.2,00.0,34.8,27.6,12.9,0000.0,0006.21,0008.29,0005.95
2022-12-31 23:37:00,,0814.7,5.01,0.00,25.8,23.8,00.0,34.8,27.4,12.9,0000.0,0006.75,0009.03,0006.48
2022-12-31 23:38:00,,0814.9,5.01,0.00,25.7,23.4,00.0,34.7,27.3,13.0,0000.0,0007.36,0010.11,0007.08
2022-12-31 23:39:00,,0814.9,5.00,0.00,25.6,23.2,00.0,34.7,27.2,13.0,0000.0,0008.01,0011.13,0007.67
2022-12-31 23:40:00,,0814.8,5.00,0.00,25.5,23.0,00.0,34.7,27.0,13.1,0000.0,0008.49,0011.62,0008.15
2022-12-31 23:41:00,,0814.8,5.01,0.00,25.5,23.0,00.0,34.6,27.0,13.1,0000.0,0008.92,0012.10,0008.54
2022-12-31 23:42:00,,0815.0,5.01,0.00,25.4,23.1,00.0,34.6,27.1,13.2,0000.0,0009.39,0012.54,0009.02
2022-12-31 23:43:00,,0815.0,5.00,0.00,25.4,23.3,00.0,34.5,27.1,13.2,0000.0,0009.98,0013.12,0009.56
2022-12-31 23:44:00,,0815.1,4.99,0.00,25.4,23.3,00.0,34.5,27.1,13.2,0000.0,0010.54,0013.70,0010.09
2022-12-31 23:45:00,,0814.9,5.00,0.00,25.3,23.1,00.0,34.5,26.9,13.1,0000.0,0011.12,0014.21,0010.69
2022-12-31 23:46:00,,0815.0,5.00,0.00,25.3,23.0,00.0,34.4,26.8,13.1,0000.0,0011.77,0015.23,0011.32
2022-12-31 23:47:00,,0814.9,5.01,0.00,25.2,22.8,00.0,34.4,26.7,13.1,0000.0,0012.14,0015.65,0011.69
2022-12-31 23:48:00,,0814.8,5.00,0.00,25.1,22.7,00.0,34.3,26.7,13.2,0000.0,0012.28,0015.84,0011.81
2022-12-31 23:49:00,,0815.1,5.01,0.00,25.0,22.7,00.0,34.3,26.6,13.2,0000.1,0012.40,0016.65,0011.90
2022-12-31 23:50:00,,0814.9,5.01,0.00,25.0,22.6,00.0,34.2,26.5,13.3,0002.1,0012.45,0016.59,0011.95
2022-12-31 23:51:00,,0814.9,4.99,0.00,24.9,22.5,00.0,34.2,26.5,13.4,0001.2,0012.52,0016.55,0012.03
2022-12-31 23:52:00,,0814.9,5.00,0.00,24.9,22.5,00.0,34.1,26.4,13.3,0002.0,0012.70,0016.65,0012.23
2022-12-31 23:53:00,,0814.9,5.00,0.00,24.8,22.4,00.0,34.1,26.4,13.3,0003.2,0012.95,0016.89,0012.45
2022-12-31 23:54:00,,0815.0,5.02,0.00,24.8,22.3,00.0,34.0,26.3,13.3,0003.2,0013.15,0017.13,0012.64
2022-12-31 23:55:00,,0815.1,4.98,0.00,24.7,22.2,00.0,34.0,26.2,13.3,0002.1,0013.33,0017.26,0012.85
2022-12-31 23:56:00,,0815.1,4.99,0.00,24.6,22.1,00.0,33.9,26.1,13.4,0002.3,0013.48,0017.62,0013.01
2022-12-31 23:57:00,,0815.2,5.00,0.00,24.6,22.0,00.0,33.9,26.0,13.4,0003.0,0013.62,0017.61,0013.14
2022-12-31 23:58:00,,0815.2,4.99,0.00,24.5,21.9,00.0,33.8,26.0,13.5,0002.4,0013.74,0017.65,0013.24
2022-12-31 23:59:00,,0815.2,5.00,0.00,24.4,21.9,00.0,33.8,25.9,13.5,0002.3,0013.83,0017.72,0013.33
